This is the latest recevied weather packets stored in our database for station/object IK6IHU-3. If no packets are shown the sender has not sent any weather packets the latest 10 day(s).
| Time | Temp. | Humidity | Pressure | Rain* | Wind** | Luminosity | Snow |
|---|---|---|---|---|---|---|---|
| 1777442769 | 18.33° C | 56% | 1014.5 hPa | 0 mm | - | 0 W/m² | - |
| 1777442709 | 17.78° C | 56% | 1014.5 hPa | 0 mm | - | 0 W/m² | - |
| 1777442649 | 17.78° C | 57% | 1014.6 hPa | 0 mm | - | 0 W/m² | - |
| 1777442589 | 17.78° C | 58% | 1014.7 hPa | 0 mm | - | 0 W/m² | - |
| 1777442529 | 17.78° C | 58% | 1014.6 hPa | 0 mm | - | 0 W/m² | - |
| 1777442468 | 17.22° C | 59% | 1014.7 hPa | 0 mm | - | 0 W/m² | - |
| 1777442409 | 17.22° C | 61% | 1014.5 hPa | 0 mm | - | 0 W/m² | - |
| 1777442349 | 16.67° C | 62% | 1014.6 hPa | 0 mm | - | 0 W/m² | - |
| 1777442289 | 17.22° C | 64% | 1014.4 hPa | 0 mm | - | 0 W/m² | - |
| 1777442229 | 17.22° C | 64% | 1014.4 hPa | 0 mm | - | 0 W/m² | - |
| 1777442168 | 17.78° C | 64% | 1014.5 hPa | 0 mm | - | 0 W/m² | - |
| 1777442108 | 17.78° C | 63% | 1014.7 hPa | 0 mm | - | 0 W/m² | - |
| 1777442049 | 17.78° C | 63% | 1014.5 hPa | 0 mm | - | 0 W/m² | - |
| 1777441989 | 16.67° C | 64% | 1014.6 hPa | 0 mm | - | 0 W/m² | - |
| 1777441929 | 16.67° C | 64% | 1014.7 hPa | 0 mm | - | 0 W/m² | - |
| 1777441869 | 16.11° C | 64% | 1014.6 hPa | 0 mm | - | 0 W/m² | - |
| 1777441809 | 16.11° C | 64% | 1014.5 hPa | 0 mm | - | 0 W/m² | - |
| 1777441749 | 16.67° C | 65% | 1014.6 hPa | 0 mm | - | 0 W/m² | - |
| 1777441689 | 16.67° C | 64% | 1014.6 hPa | 0 mm | - | 0 W/m² | - |
| 1777441628 | 16.67° C | 64% | 1014.5 hPa | 0 mm | - | 0 W/m² | - |
| 1777441568 | 16.67° C | 64% | 1014.6 hPa | 0 mm | - | 0 W/m² | - |
| 1777441509 | 16.67° C | 63% | 1014.6 hPa | 0 mm | - | 0 W/m² | - |
| 1777441449 | 16.67° C | 63% | 1014.4 hPa | 0 mm | - | 0 W/m² | - |
| 1777441389 | 16.67° C | 62% | 1014.9 hPa | 0 mm | - | 0 W/m² | - |
| 1777441329 | 16.67° C | 62% | 1014.5 hPa | 0 mm | - | 0 W/m² | - |
* Rain latest hour (hover to see other rain measurements)
** Current wind speed in m/s (hover to see current wind gust speed)